Location: *
(45.1961°N, 1.9694°E)
Time: 17:41:22
(UTC+00:00)

Cosmos 2327 Rocket - Pass Details

Date: 25 August 2019
Orbit: 944 x 1008 km, 83.0° (Epoch: 22 September)

Event Time Altitude Azimuth Distance (km) Brightness Sun altitude
Rises 21:30:48 0° 352° (N) 3,749 8.4 -25.5°
Reaches altitude 10° 21:33:22 10° 354° (N) 2,792 7.6 -25.8°
Maximum altitude 21:39:49 77° 81° (E) 1,029 4.4 -26.5°
Enters shadow 21:40:39 66° 139° (SE) 1,082 4.4 -26.6°
